CDT,Max TemperatureF,Mean TemperatureF,Min TemperatureF,Max Dew PointF,MeanDew PointF,Min DewpointF,Max Humidity, Mean Humidity, Min Humidity, Max Sea Level PressureIn, Mean Sea Level PressureIn, Min Sea Level PressureIn, Max VisibilityMiles, Mean VisibilityMiles, Min VisibilityMiles, Max Wind SpeedMPH, Mean Wind SpeedMPH, Max Gust SpeedMPH,PrecipitationIn, CloudCover, Events, WindDirDegrees
2012-10-1,60,58,55,55,52,48,94,84,67,29.82,29.74,29.70,10,8,3,12,6,20,0.25,6,Rain,11
2012-10-2,62,56,52,55,51,48,94,80,63,29.92,29.83,29.73,10,10,6,15,8,24,0.01,8,Rain,326
2012-10-3,78,66,55,58,54,51,93,74,43,30.10,30.01,29.92,10,9,2,16,6,25,0.25,3,Rain-Thunderstorm,196
2012-10-4,80,68,55,58,56,53,97,72,40,30.21,30.15,30.11,10,9,7,15,5,,0.01,1,,192
2012-10-5,59,52,41,55,45,39,96,86,67,30.20,30.15,30.08,10,9,2,17,9,25,0.39,6,Rain-Thunderstorm,351
2012-10-6,54,44,36,39,35,32,97,72,47,30.27,30.23,30.20,10,10,10,12,6,,0.00,3,,335
2012-10-7,55,46,39,38,34,30,93,66,40,30.29,30.24,30.20,10,10,10,9,5,,0.00,3,,327
2012-10-8,61,48,35,40,36,32,100,78,38,30.27,30.20,30.12,10,6,0,9,1,,0.00,0,Fog,181
2012-10-9,64,50,36,46,41,34,93,70,45,30.14,30.05,29.97,10,10,10,17,6,23,0.00,1,,187
2012-10-10,57,47,37,47,34,23,89,61,29,30.29,30.20,30.00,10,10,10,18,8,26,0.00,3,,324
2012-10-11,63,48,32,48,37,30,96,65,35,30.30,30.23,30.18,10,9,2,12,3,,0.00,4,Rain-Thunderstorm,197
2012-10-12,64,57,48,52,50,46,96,85,60,30.35,30.27,30.20,10,7,0,7,2,,0.09,4,Fog-Rain,80
2012-10-13,79,62,46,65,57,46,100,83,58,30.25,30.12,29.90,10,5,0,21,6,25,0.00,4,Fog,177
2012-10-14,73,64,55,64,59,50,94,78,55,29.95,29.83,29.74,10,9,2,28,17,38,0.24,5,Rain,217
2012-10-15,71,58,45,49,45,42,93,71,35,30.03,29.98,29.95,10,10,7,9,2,,0.00,0,,313
2012-10-16,79,62,45,53,49,43,93,63,38,29.97,29.83,29.71,10,10,10,16,6,26,0.01,0,,176
2012-10-17,77,66,55,63,56,49,94,74,48,29.73,29.55,29.33,10,8,1,26,15,41,0.93,6,Rain-Thunderstorm,214
2012-10-18,64,54,45,50,38,29,90,55,27,29.70,29.65,29.61,10,10,10,25,11,36,0.00,2,,231
2012-10-19,57,52,48,44,39,31,80,62,37,29.82,29.69,29.59,10,10,6,17,10,25,0.05,7,Rain,258
2012-10-20,64,54,45,45,43,42,90,76,48,29.94,29.89,29.83,10,10,10,8,5,,0.00,4,,217
2012-10-21,77,60,46,61,54,43,89,67,47,30.00,29.97,29.94,10,10,10,17,8,26,0.00,3,,169
2012-10-22,79,72,64,62,52,47,61,51,38,30.03,30.00,29.97,10,10,10,25,13,36,0.00,1,,194
2012-10-23,79,72,64,60,55,49,73,58,48,30.02,29.97,29.92,10,10,10,20,11,26,0.00,2,,191
2012-10-24,81,70,60,62,58,53,83,66,54,30.05,29.99,29.93,10,10,10,18,10,18,0.00,1,,187
2012-10-25,79,62,46,63,55,45,93,73,56,30.12,29.96,29.85,10,10,4,25,13,34,0.02,4,Rain,227
2012-10-26,48,44,39,43,38,33,93,79,61,30.30,30.22,30.11,10,9,4,20,13,28,0.39,6,Rain,351
2012-10-27,54,44,34,36,33,30,85,69,50,30.27,30.22,30.18,10,10,10,17,10,24,0.00,0,,344
2012-10-28,53,43,34,36,33,31,89,70,50,30.24,30.21,30.19,10,10,10,16,8,20,0.00,2,,341
2012-10-29,55,44,34,35,30,27,85,64,35,30.30,30.21,30.09,10,10,10,17,8,22,0.00,0,,333
2012-10-30,57,47,37,28,26,25,65,49,29,30.07,29.95,29.87,10,10,10,22,11,33,0.00,1,,314
2012-10-31,55,44,33,30,25,18,79,52,23,29.99,29.95,29.91,10,10,10,15,6,22,0.00,0,,308